McCook, NE

4:40 PM CST on December 02, 2016 (GMT -0600)
McCook Municipal

Weather History for KMCK - September, 2014

Change the Weather History Date:

Thursday, September 18, 2014

  Actual Average Record
Temperature  
Mean Temperature 64 °F 63 °F  
Max Temperature 71 °F 79 °F 101 °F (2004)
Min Temperature 57 °F 48 °F 32 °F (1912)
Growing Degree Days 15 (Base 50)    
Moisture  
Dew Point 62 °F    
Average Humidity 94    
Maximum Humidity 100    
Minimum Humidity 73    
Precipitation  
Precipitation 0.00 in 0.04 in 1.07 in (1955)
Month to date precipitation 1.11 0.87  
Year to date precipitation 22.06 18.58  
Sea Level Pressure  
Sea Level Pressure 29.93 in    
Wind  
Wind Speed 7 mph (ESE)    
Max Wind Speed 12 mph    
Max Gust Speed -    
Visibility 4 miles    
Events Fog    
T = Trace of Precipitation, MM = Missing Value Source: NWS Daily Summary

Daily Weather History Graph

Daily Weather History Graph

Search for Another Location

Airport or City:

Trip Planner

Search our weather history database for the weather conditions in past years. The results will help you decide how hot, cold, wet, or windy it might be!

Date:

Astronomy

Sep. 18, 2014 Rise Set
Actual Time 7:26 AM CDT 7:46 PM CDT
Civil Twilight 6:58 AM CDT 8:13 PM CDT
Nautical Twilight 6:26 AM CDT 8:45 PM CDT
Astronomical Twilight 5:54 AM CDT 9:17 PM CDT
Moon 2:19 AM CDT (9/18) 4:38 PM CDT (9/18)
Length of Visible Light 13h 14m
Length of Day
12h 19m
Waning Crescent, 26% of the Moon is Illuminated
Sep 18
Waning Crescent
Sep 24
New
Oct 1
First Quarter
Oct 8
Full
Oct 15
Last Quarter

Hourly Weather History & Observations

Time (CDT) Temp. Dew Point Humidity Pressure Visibility Wind Dir Wind Speed Gust Speed Precip Events Conditions
12:53 AM 63.0 °F 60.1 °F 90% 29.91 in 8.0 mi ENE 4.6 mph - N/A   Clear
1:53 AM 63.0 °F 61.0 °F 93% 29.90 in 6.0 mi Calm Calm - N/A   Clear
2:43 AM 62.1 °F 60.1 °F 93% 29.96 in 4.0 mi NE 4.6 mph - N/A   Scattered Clouds
2:53 AM 62.1 °F 61.0 °F 96% 29.89 in 4.0 mi ENE 5.8 mph - N/A   Mostly Cloudy
3:39 AM 63.0 °F 62.1 °F 97% 29.95 in 4.0 mi ENE 6.9 mph - N/A   Overcast
3:46 AM 63.0 °F 62.1 °F 97% 29.95 in 1.5 mi ENE 8.1 mph - N/A   Overcast
3:53 AM 62.6 °F 62.6 °F 100% 29.94 in 0.5 mi ENE 9.2 mph - N/A Fog Fog
4:53 AM 63.0 °F 62.1 °F 97% 29.88 in 0.5 mi East 8.1 mph - N/A Fog Fog
5:05 AM 63.0 °F 62.1 °F 97% 29.95 in 1.8 mi East 8.1 mph - N/A   Overcast
5:14 AM 63.0 °F 62.1 °F 97% 29.95 in 2.5 mi East 8.1 mph - N/A   Overcast
5:27 AM 63.0 °F 62.1 °F 97% 29.95 in 3.0 mi East 6.9 mph - N/A   Overcast
5:42 AM 62.1 °F 62.1 °F 100% 29.95 in 4.0 mi East 6.9 mph - N/A   Overcast
5:53 AM 62.1 °F 62.1 °F 100% 29.88 in 3.0 mi East 6.9 mph - N/A   Overcast
6:01 AM 62.1 °F 62.1 °F 100% 29.95 in 1.8 mi East 8.1 mph - N/A   Overcast
6:08 AM 62.6 °F 62.6 °F 100% 29.95 in 1.2 mi East 9.2 mph - N/A   Overcast
6:46 AM 63.0 °F 62.1 °F 97% 29.95 in 0.8 mi East 5.8 mph - N/A   Overcast
6:53 AM 62.6 °F 62.6 °F 100% 29.95 in 0.8 mi East 6.9 mph - N/A   Overcast
7:53 AM 63.0 °F 62.1 °F 97% 29.91 in 0.5 mi East 8.1 mph - N/A Fog Fog
8:53 AM 63.0 °F 62.1 °F 97% 29.93 in 0.2 mi East 9.2 mph - N/A Fog Fog
9:53 AM 62.1 °F 61.0 °F 96% 29.94 in 1.0 mi ESE 11.5 mph - N/A   Overcast
10:19 AM 62.1 °F 62.1 °F 100% 29.99 in 0.8 mi ESE 9.2 mph - N/A   Overcast
10:30 AM 62.1 °F 62.1 °F 100% 29.99 in 1.0 mi ESE 10.4 mph - N/A   Overcast
10:40 AM 62.1 °F 62.1 °F 100% 29.99 in 0.8 mi ESE 10.4 mph - N/A   Overcast
10:53 AM 63.0 °F 62.1 °F 97% 29.95 in 0.8 mi ESE 10.4 mph - N/A   Overcast
11:04 AM 63.0 °F 62.1 °F 97% 29.99 in 1.0 mi ESE 9.2 mph - N/A   Overcast
11:53 AM 64.0 °F 63.0 °F 96% 29.95 in 1.8 mi SE 10.4 mph - N/A   Overcast
12:53 PM 64.0 °F 63.0 °F 96% 29.96 in 1.2 mi ESE 8.1 mph - N/A   Overcast
1:23 PM 64.9 °F 63.0 °F 93% 29.98 in 2.5 mi SE 10.4 mph - N/A   Overcast
1:31 PM 64.9 °F 63.0 °F 93% 29.98 in 3.0 mi ESE 10.4 mph - N/A   Overcast
1:44 PM 64.9 °F 63.0 °F 93% 29.98 in 2.5 mi ESE 9.2 mph - N/A   Overcast
1:53 PM 64.9 °F 63.0 °F 93% 29.94 in 2.5 mi SE 9.2 mph - N/A   Overcast
2:10 PM 66.2 °F 62.6 °F 88% 29.97 in 4.0 mi SE 9.2 mph - N/A   Overcast
2:49 PM 66.2 °F 64.4 °F 94% 29.96 in 2.5 mi ESE 9.2 mph - N/A   Overcast
2:53 PM 66.0 °F 64.0 °F 93% 29.91 in 2.5 mi SE 9.2 mph - N/A   Overcast
3:02 PM 66.0 °F 64.0 °F 93% 29.96 in 4.0 mi SE 9.2 mph - N/A   Overcast
3:53 PM 66.9 °F 64.0 °F 90% 29.90 in 3.0 mi SE 6.9 mph - N/A   Overcast
4:15 PM 66.9 °F 64.0 °F 90% 29.94 in 7.0 mi SE 6.9 mph - N/A   Overcast
4:34 PM 68.0 °F 63.0 °F 84% 29.93 in 10.0 mi SE 8.1 mph - N/A   Overcast
4:43 PM 68.0 °F 63.0 °F 84% 29.93 in 10.0 mi SE 8.1 mph - N/A   Overcast
4:53 PM 68.0 °F 63.0 °F 84% 29.88 in 10.0 mi ESE 5.8 mph - N/A   Overcast
5:53 PM 70.0 °F 62.1 °F 76% 29.87 in 10.0 mi SE 8.1 mph - N/A   Overcast
6:14 PM 71.1 °F 62.1 °F 73% 29.91 in 10.0 mi SE 9.2 mph - N/A   Scattered Clouds
6:53 PM 70.0 °F 62.1 °F 76% 29.85 in 10.0 mi ESE 8.1 mph - N/A   Clear
7:53 PM 66.0 °F 61.0 °F 84% 29.85 in 10.0 mi East 5.8 mph - N/A   Clear
8:53 PM 63.0 °F 61.0 °F 93% 29.86 in 10.0 mi East 6.9 mph - N/A   Clear
9:53 PM 62.1 °F 61.0 °F 96% 29.87 in 9.0 mi East 3.5 mph - N/A   Clear
10:53 PM 61.0 °F 60.1 °F 97% 29.86 in 4.0 mi Calm Calm - N/A   Clear
10:58 PM 61.0 °F 60.1 °F 97% 29.90 in 1.8 mi Calm Calm - N/A   Clear
11:19 PM 59.0 °F 57.9 °F 96% 29.90 in 0.5 mi Calm Calm - N/A Fog Fog
11:32 PM 59.0 °F 57.9 °F 96% 29.90 in 1.0 mi NE 3.5 mph - N/A   Clear
11:39 PM 59.0 °F 57.9 °F 96% 29.90 in 3.0 mi NNE 3.5 mph - N/A   Clear
11:43 PM 59.0 °F 57.9 °F 96% 29.90 in 1.8 mi Calm Calm - N/A   Partly Cloudy
11:47 PM 59.0 °F 57.2 °F 94% 29.89 in 0.8 mi Calm Calm - N/A   Mist
11:53 PM 59.0 °F 59.0 °F 100% 29.86 in 0.5 mi Calm Calm - N/A Fog Fog